Location: Staunton
(38.1490°N, 79.0720°W)
Time: 22:45:15
(UTC-05:00)

ISS - Pass Details

Date: 02 February 2021
Orbit: 417 x 422 km, 51.6° (Epoch: 07 March)

Event Time Altitude Azimuth Distance (km) Brightness Sun altitude
Rises 18:18:53 0° 318° (NW) 2,373 0.5 -8.0°
Reaches altitude 10° 18:21:31 10° 340° (NNW) 1,507 -0.9 -8.5°
Maximum altitude 18:23:51 17° 23° (NNE) 1,141 -1.9 -8.9°
Enters shadow 18:25:40 12° 60° (ENE) 1,374 -1.8 -9.3°
